Flag for Canada Weather past 2 weeks in Campbell River, British Columbia, Canada

Now
54 °F

Low clouds.


Feels Like: 49 °F
Forecast: 48 / 56 °F
Wind: 17 mph from Southeast

Location: Campbell River Airport

Current Time: Apr 27, 2015 at 4:04:51 PM

Latest Report: Apr 27, 2015 at 3:00 PM


Visibility: 7 mi

Pressure: 30.13 "Hg

Humidity: 88%

Dew point: 50 °F

Location of Campbell RiverLocation

Historic Weather in Campbell River — Graph

°F

Campbell River temperature yesterday

Maximum temperature yesterday: 52 °F (at 1:00 PM)
Minimum temperature yesterday: 46 °F (at 6:00 AM)
Average temperature yesterday: 50 °F

Past Weeks' High & Low Weather Summary

 TemperatureHumidityPressure
High72 °F (Apr 20, 4:00 PM)100% (Apr 14, 7:00 AM)30.51 "Hg (Apr 14, 7:00 AM)
Low30 °F (Apr 14, 6:00 AM)28% (Apr 18, 9:00 PM)29.66 "Hg (Apr 23, 5:00 PM)
Average49 °F70%30.10 "Hg
* Reported Apr 12 2:00 PM — Apr 27 2:00 PM, Campbell River, Weather by CustomWeather, © 2015

Note: Actual official high and low records may vary slightly from our data, if they occured in-between our weather recording intervals... More about our weather records

Advertising

Campbell River weather history for previous 24 hours

 ConditionsComfort  
Time TempWeatherWind HumidityBarometerVisibility
2:00 PM
Mon, Apr 27
54 °FLow clouds.18 mph88%30.15 "Hg8 mi
1:00 PM54 °FLow clouds.16 mph82%30.16 "Hg7 mi
12:50 PM52 °FLow clouds.21 mph88%30.17 "Hg7 mi
12:00 PM50 °FLow clouds.16 mph94%30.18 "Hg7 mi
11:00 AM50 °FLow clouds.20 mph94%30.18 "Hg7 mi
10:46 AM50 °FLow clouds.17 mph94%30.19 "Hg7 mi
10:00 AM50 °FLight rain. Fog.17 mph94%30.19 "Hg5 mi
9:00 AM50 °FLight rain. Fog.14 mph94%30.19 "Hg4 mi
8:00 AM48 °FLight rain. Fog.13 mph94%30.19 "Hg4 mi
7:00 AM48 °FMostly cloudy.13 mph94%30.19 "Hg7 mi
6:00 AM48 °FLight rain. Mostly cloudy.14 mph94%30.19 "Hg15 mi
9:00 PM
Sun, Apr 26
48 °FMore clouds than sun.9 mph82%30.18 "Hg15 mi
8:00 PM50 °FMore clouds than sun.13 mph76%30.16 "Hg15 mi
7:00 PM50 °FMore clouds than sun.13 mph76%30.16 "Hg15 mi
6:00 PM52 °FMore clouds than sun.13 mph67%30.17 "Hg15 mi
5:00 PM52 °FCloudy.18 mph67%30.17 "Hg15 mi
4:00 PM52 °FCloudy.13 mph67%30.17 "Hg15 mi
Weather by CustomWeather, © 2015

See weather overviewHow to use our weather pages